Year,Month,Day,Hour,Minute,Value (Times are PST for insolation in W/m^2)
2008,02,01,00,00,0.00
2008,02,01,00,01,0.00
2008,02,01,00,02,0.00
2008,02,01,00,03,0.00
2008,02,01,00,04,0.00
2008,02,01,00,05,0.00
2008,02,01,00,06,0.00
2008,02,01,00,07,0.00
2008,02,01,00,08,0.00
2008,02,01,00,09,0.00
2008,02,01,00,10,0.00
2008,02,01,00,11,0.00
2008,02,01,00,12,0.00
2008,02,01,00,13,0.00
2008,02,01,00,14,0.00
2008,02,01,00,15,0.00
2008,02,01,00,16,0.00
2008,02,01,00,17,0.00
2008,02,01,00,18,0.00
2008,02,01,00,19,0.00
2008,02,01,00,20,0.00
2008,02,01,00,21,0.00
2008,02,01,00,22,0.00
2008,02,01,00,23,0.00
2008,02,01,00,24,0.00
2008,02,01,00,25,0.00
2008,02,01,00,26,0.00
2008,02,01,00,27,0.00
2008,02,01,00,28,0.00
2008,02,01,00,29,0.00
2008,02,01,00,30,0.00
2008,02,01,00,31,0.00
2008,02,01,00,32,0.00
2008,02,01,00,33,0.00
2008,02,01,00,34,0.00
2008,02,01,00,35,0.00
2008,02,01,00,36,0.00
2008,02,01,00,37,0.00
2008,02,01,00,38,0.00
2008,02,01,00,39,0.00
2008,02,01,00,40,0.00
2008,02,01,00,41,0.00
2008,02,01,00,42,0.00
2008,02,01,00,43,0.00
2008,02,01,00,44,0.00
2008,02,01,00,45,0.00
2008,02,01,00,46,0.00
2008,02,01,00,47,0.00
2008,02,01,00,48,0.00
2008,02,01,00,49,0.00
2008,02,01,00,50,0.00
2008,02,01,00,51,0.00
2008,02,01,00,52,0.00
2008,02,01,00,53,0.00
2008,02,01,00,54,0.00
2008,02,01,00,55,0.00
2008,02,01,00,56,0.00
2008,02,01,00,57,0.00
2008,02,01,00,58,0.00
2008,02,01,00,59,0.00
2008,02,01,01,00,0.00
2008,02,01,01,01,0.00
2008,02,01,01,02,0.00
2008,02,01,01,03,0.00
2008,02,01,01,04,0.00
2008,02,01,01,05,0.00
2008,02,01,01,06,0.00
2008,02,01,01,07,0.00
2008,02,01,01,08,0.00
2008,02,01,01,09,0.00
2008,02,01,01,10,0.00
2008,02,01,01,11,0.00
2008,02,01,01,12,0.00
2008,02,01,01,13,0.00
2008,02,01,01,14,0.00
2008,02,01,01,15,0.00
2008,02,01,01,16,0.00
2008,02,01,01,17,0.00
2008,02,01,01,18,0.00
2008,02,01,01,19,0.00
2008,02,01,01,20,0.00
2008,02,01,01,21,0.00
2008,02,01,01,22,0.00
2008,02,01,01,23,0.00
2008,02,01,01,24,0.00
2008,02,01,01,25,0.00
2008,02,01,01,26,0.00
2008,02,01,01,27,0.00
2008,02,01,01,28,0.00
2008,02,01,01,29,0.00
2008,02,01,01,30,0.00
2008,02,01,01,31,0.00
2008,02,01,01,32,0.00
2008,02,01,01,33,0.00
2008,02,01,01,34,0.00
2008,02,01,01,35,0.00
2008,02,01,01,36,0.00
2008,02,01,01,37,0.00
2008,02,01,01,38,0.00
2008,02,01,01,39,0.00
2008,02,01,01,40,0.00
2008,02,01,01,41,0.00
2008,02,01,01,42,0.00
2008,02,01,01,43,0.00
2008,02,01,01,44,0.00
2008,02,01,01,45,0.00
2008,02,01,01,46,0.00
2008,02,01,01,47,0.00
2008,02,01,01,48,0.00
2008,02,01,01,49,0.00
2008,02,01,01,50,0.00
2008,02,01,01,51,0.00
2008,02,01,01,52,0.00
2008,02,01,01,53,0.00
2008,02,01,01,54,0.00
2008,02,01,01,55,0.00
2008,02,01,01,56,0.00
2008,02,01,01,57,0.00
2008,02,01,01,58,0.00
2008,02,01,01,59,0.00
2008,02,01,02,00,0.00
2008,02,01,02,01,0.00
2008,02,01,02,02,0.00
2008,02,01,02,03,0.00
2008,02,01,02,04,0.00
2008,02,01,02,05,0.00
2008,02,01,02,06,0.00
2008,02,01,02,07,0.00
2008,02,01,02,08,0.00
2008,02,01,02,09,0.00
2008,02,01,02,10,0.00
2008,02,01,02,11,0.00
2008,02,01,02,12,0.00
2008,02,01,02,13,0.00
2008,02,01,02,14,0.00
2008,02,01,02,15,0.00
2008,02,01,02,16,0.00
2008,02,01,02,17,0.00
2008,02,01,02,18,0.00
2008,02,01,02,19,0.00
2008,02,01,02,20,0.00
2008,02,01,02,21,0.00
2008,02,01,02,22,0.00
2008,02,01,02,23,0.00
2008,02,01,02,24,0.00
2008,02,01,02,25,0.00
2008,02,01,02,26,0.00
2008,02,01,02,27,0.00
2008,02,01,02,28,0.00
2008,02,01,02,29,0.00
2008,02,01,02,30,0.00
2008,02,01,02,31,0.00
2008,02,01,02,32,0.00
2008,02,01,02,33,0.00
2008,02,01,02,34,0.00
2008,02,01,02,35,0.00
2008,02,01,02,36,0.00
2008,02,01,02,37,0.00
2008,02,01,02,38,0.00
2008,02,01,02,39,0.00
2008,02,01,02,40,0.00
2008,02,01,02,41,0.00
2008,02,01,02,42,0.00
2008,02,01,02,43,0.00
2008,02,01,02,44,0.00
2008,02,01,02,45,0.00
2008,02,01,02,46,0.00
2008,02,01,02,47,0.00
2008,02,01,02,48,0.00
2008,02,01,02,49,0.00
2008,02,01,02,50,0.00
2008,02,01,02,51,0.00
2008,02,01,02,52,0.00
2008,02,01,02,53,0.00
2008,02,01,02,54,0.00
2008,02,01,02,55,0.00
2008,02,01,02,56,0.00
2008,02,01,02,57,0.00
2008,02,01,02,58,0.00
2008,02,01,02,59,0.00
2008,02,01,03,00,0.00
2008,02,01,03,01,0.00
2008,02,01,03,02,0.00
2008,02,01,03,03,0.00
2008,02,01,03,04,0.00
2008,02,01,03,05,0.00
2008,02,01,03,06,0.00
2008,02,01,03,07,0.00
2008,02,01,03,08,0.00
2008,02,01,03,09,0.00
2008,02,01,03,10,0.00
2008,02,01,03,11,0.00
2008,02,01,03,12,0.00
2008,02,01,03,13,0.00
2008,02,01,03,14,0.00
2008,02,01,03,15,0.00
2008,02,01,03,16,0.00
2008,02,01,03,17,0.00
2008,02,01,03,18,0.00
2008,02,01,03,19,0.00
2008,02,01,03,20,0.00
2008,02,01,03,21,0.00
2008,02,01,03,22,0.00
2008,02,01,03,23,0.00
2008,02,01,03,24,0.00
2008,02,01,03,25,0.00
2008,02,01,03,26,0.00
2008,02,01,03,27,0.00
2008,02,01,03,28,0.00
2008,02,01,03,29,0.00
2008,02,01,03,30,0.00
2008,02,01,03,31,0.00
2008,02,01,03,32,0.00
2008,02,01,03,33,0.00
2008,02,01,03,34,0.00
2008,02,01,03,35,0.00
2008,02,01,03,36,0.00
2008,02,01,03,37,0.00
2008,02,01,03,38,0.00
2008,02,01,03,39,0.00
2008,02,01,03,40,0.00
2008,02,01,03,41,0.00
2008,02,01,03,42,0.00
2008,02,01,03,43,0.00
2008,02,01,03,44,0.00
2008,02,01,03,45,0.00
2008,02,01,03,46,0.00
2008,02,01,03,47,0.00
2008,02,01,03,48,0.00
2008,02,01,03,49,0.00
2008,02,01,03,50,0.00
2008,02,01,03,51,0.00
2008,02,01,03,52,0.00
2008,02,01,03,53,0.00
2008,02,01,03,54,0.00
2008,02,01,03,55,0.00
2008,02,01,03,56,0.00
2008,02,01,03,57,0.00
2008,02,01,03,58,0.00
2008,02,01,03,59,0.00
2008,02,01,04,00,0.00
2008,02,01,04,01,0.00
2008,02,01,04,02,0.00
2008,02,01,04,03,0.00
2008,02,01,04,04,0.00
2008,02,01,04,05,0.00
2008,02,01,04,06,0.00
2008,02,01,04,07,0.00
2008,02,01,04,08,0.00
2008,02,01,04,09,0.00
2008,02,01,04,10,0.00
2008,02,01,04,11,0.00
2008,02,01,04,12,0.00
2008,02,01,04,13,0.00
2008,02,01,04,14,0.00
2008,02,01,04,15,0.00
2008,02,01,04,16,0.00
2008,02,01,04,17,0.00
2008,02,01,04,18,0.00
2008,02,01,04,19,0.00
2008,02,01,04,20,0.00
2008,02,01,04,21,0.00
2008,02,01,04,22,0.00
2008,02,01,04,23,0.00
2008,02,01,04,24,0.00
2008,02,01,04,25,0.00
2008,02,01,04,26,0.00
2008,02,01,04,27,0.00
2008,02,01,04,28,0.00
2008,02,01,04,29,0.00
2008,02,01,04,30,0.00
2008,02,01,04,31,0.00
2008,02,01,04,32,0.00
2008,02,01,04,33,0.00
2008,02,01,04,34,0.00
2008,02,01,04,35,0.00
2008,02,01,04,36,0.00
2008,02,01,04,37,0.00
2008,02,01,04,38,0.00
2008,02,01,04,39,0.00
2008,02,01,04,40,0.00
2008,02,01,04,41,0.00
2008,02,01,04,42,0.00
2008,02,01,04,43,0.00
2008,02,01,04,44,0.00
2008,02,01,04,45,0.00
2008,02,01,04,46,0.00
2008,02,01,04,47,0.00
2008,02,01,04,48,0.00
2008,02,01,04,49,0.00
2008,02,01,04,50,0.00
2008,02,01,04,51,0.00
2008,02,01,04,52,0.00
2008,02,01,04,53,0.00
2008,02,01,04,54,0.00
2008,02,01,04,55,0.00
2008,02,01,04,56,0.00
2008,02,01,04,57,0.00
2008,02,01,04,58,0.00
2008,02,01,04,59,0.00
2008,02,01,05,00,0.00
2008,02,01,05,01,0.00
2008,02,01,05,02,0.00
2008,02,01,05,03,0.00
2008,02,01,05,04,0.00
2008,02,01,05,05,0.00
2008,02,01,05,06,0.00
2008,02,01,05,07,0.00
2008,02,01,05,08,0.00
2008,02,01,05,09,0.00
2008,02,01,05,10,0.00
2008,02,01,05,11,0.00
2008,02,01,05,12,0.00
2008,02,01,05,13,0.00
2008,02,01,05,14,0.00
2008,02,01,05,15,0.00
2008,02,01,05,16,0.00
2008,02,01,05,17,0.00
2008,02,01,05,18,0.00
2008,02,01,05,19,0.00
2008,02,01,05,20,0.00
2008,02,01,05,21,0.00
2008,02,01,05,22,0.00
2008,02,01,05,23,0.00
2008,02,01,05,24,0.00
2008,02,01,05,25,0.00
2008,02,01,05,26,0.00
2008,02,01,05,27,0.00
2008,02,01,05,28,0.00
2008,02,01,05,29,0.00
2008,02,01,05,30,0.00
2008,02,01,05,31,0.00
2008,02,01,05,32,0.00
2008,02,01,05,33,0.00
2008,02,01,05,34,0.00
2008,02,01,05,35,0.00
2008,02,01,05,36,0.00
2008,02,01,05,37,0.00
2008,02,01,05,38,0.00
2008,02,01,05,39,0.00
2008,02,01,05,40,0.00
2008,02,01,05,41,0.00
2008,02,01,05,42,0.00
2008,02,01,05,43,0.00
2008,02,01,05,44,0.00
2008,02,01,05,45,0.00
2008,02,01,05,46,0.00
2008,02,01,05,47,0.00
2008,02,01,05,48,0.00
2008,02,01,05,49,0.00
2008,02,01,05,50,0.00
2008,02,01,05,51,0.00
2008,02,01,05,52,0.00
2008,02,01,05,53,0.00
2008,02,01,05,54,0.00
2008,02,01,05,55,0.00
2008,02,01,05,56,0.00
2008,02,01,05,57,0.00
2008,02,01,05,58,0.00
2008,02,01,05,59,0.00
2008,02,01,06,00,0.00
2008,02,01,06,01,0.00
2008,02,01,06,02,0.00
2008,02,01,06,03,0.00
2008,02,01,06,04,0.00
2008,02,01,06,05,0.00
2008,02,01,06,06,0.00
2008,02,01,06,07,0.00
2008,02,01,06,08,0.00
2008,02,01,06,09,0.00
2008,02,01,06,10,0.00
2008,02,01,06,11,0.00
2008,02,01,06,12,0.00
2008,02,01,06,13,0.00
2008,02,01,06,14,0.00
2008,02,01,06,15,0.00
2008,02,01,06,16,0.00
2008,02,01,06,17,0.00
2008,02,01,06,18,0.00
2008,02,01,06,19,0.00
2008,02,01,06,20,0.00
2008,02,01,06,21,0.00
2008,02,01,06,22,0.00
2008,02,01,06,23,0.00
2008,02,01,06,24,0.00
2008,02,01,06,25,0.00
2008,02,01,06,26,0.00
2008,02,01,06,27,0.00
2008,02,01,06,28,0.00
2008,02,01,06,29,0.00
2008,02,01,06,30,0.00
2008,02,01,06,31,0.00
2008,02,01,06,32,0.00
2008,02,01,06,33,0.00
2008,02,01,06,34,0.00
2008,02,01,06,35,0.00
2008,02,01,06,36,0.00
2008,02,01,06,37,0.00
2008,02,01,06,38,0.00
2008,02,01,06,39,0.00
2008,02,01,06,40,0.00
2008,02,01,06,41,0.00
2008,02,01,06,42,0.00
2008,02,01,06,43,0.00
2008,02,01,06,44,0.00
2008,02,01,06,45,0.00
2008,02,01,06,46,0.00
2008,02,01,06,47,0.00
2008,02,01,06,48,0.00
2008,02,01,06,49,0.00
2008,02,01,06,50,0.00
2008,02,01,06,51,0.00
2008,02,01,06,52,0.00
2008,02,01,06,53,0.00
2008,02,01,06,54,0.00
2008,02,01,06,55,0.00
2008,02,01,06,56,0.00
2008,02,01,06,57,0.00
2008,02,01,06,58,0.00
2008,02,01,06,59,0.00
2008,02,01,07,00,0.00
2008,02,01,07,01,0.00
2008,02,01,07,02,0.00
2008,02,01,07,03,0.00
2008,02,01,07,04,0.00
2008,02,01,07,05,0.00
2008,02,01,07,06,0.00
2008,02,01,07,07,0.00
2008,02,01,07,08,0.00
2008,02,01,07,09,0.00
2008,02,01,07,10,0.00
2008,02,01,07,11,0.00
2008,02,01,07,12,0.00
2008,02,01,07,13,0.00
2008,02,01,07,14,0.00
2008,02,01,07,15,0.00
2008,02,01,07,16,0.00
2008,02,01,07,17,0.00
2008,02,01,07,18,0.00
2008,02,01,07,19,0.00
2008,02,01,07,20,0.00
2008,02,01,07,21,0.00
2008,02,01,07,22,0.00
2008,02,01,07,23,0.00
2008,02,01,07,24,0.00
2008,02,01,07,25,0.00
2008,02,01,07,26,0.00
2008,02,01,07,27,0.00
2008,02,01,07,28,0.00
2008,02,01,07,29,0.00
2008,02,01,07,30,0.00
2008,02,01,07,31,0.00
2008,02,01,07,32,0.00
2008,02,01,07,33,0.00
2008,02,01,07,34,0.00
2008,02,01,07,35,0.00
2008,02,01,07,36,0.00
2008,02,01,07,37,0.00
2008,02,01,07,38,0.00
2008,02,01,07,39,0.00
2008,02,01,07,40,0.00
2008,02,01,07,41,0.00
2008,02,01,07,42,0.00
2008,02,01,07,43,0.00
2008,02,01,07,44,0.00
2008,02,01,07,45,4.20
2008,02,01,07,46,5.00
2008,02,01,07,47,5.00
2008,02,01,07,48,5.00
2008,02,01,07,49,5.00
2008,02,01,07,50,5.00
2008,02,01,07,51,5.00
2008,02,01,07,52,5.20
2008,02,01,07,53,7.00
2008,02,01,07,54,7.00
2008,02,01,07,55,7.00
2008,02,01,07,56,8.30
2008,02,01,07,57,9.00
2008,02,01,07,58,9.00
2008,02,01,07,59,9.60
2008,02,01,08,00,11.00
2008,02,01,08,01,11.60
2008,02,01,08,02,12.00
2008,02,01,08,03,12.00
2008,02,01,08,04,12.50
2008,02,01,08,05,16.60
2008,02,01,08,06,18.50
2008,02,01,08,07,20.20
2008,02,01,08,08,22.60
2008,02,01,08,09,24.90
2008,02,01,08,10,26.90
2008,02,01,08,11,31.00
2008,02,01,08,12,33.00
2008,02,01,08,13,35.70
2008,02,01,08,14,38.60
2008,02,01,08,15,39.00
2008,02,01,08,16,40.00
2008,02,01,08,17,40.00
2008,02,01,08,18,41.00
2008,02,01,08,19,42.00
2008,02,01,08,20,42.00
2008,02,01,08,21,43.80
2008,02,01,08,22,44.00
2008,02,01,08,23,43.30
2008,02,01,08,24,41.00
2008,02,01,08,25,39.30
2008,02,01,08,26,37.40
2008,02,01,08,27,35.00
2008,02,01,08,28,32.80
2008,02,01,08,29,31.20
2008,02,01,08,30,30.00
2008,02,01,08,31,28.60
2008,02,01,08,32,28.00
2008,02,01,08,33,28.00
2008,02,01,08,34,28.00
2008,02,01,08,35,28.00
2008,02,01,08,36,28.00
2008,02,01,08,37,28.00
2008,02,01,08,38,28.00
2008,02,01,08,39,28.00
2008,02,01,08,40,28.00
2008,02,01,08,41,28.00
2008,02,01,08,42,28.00
2008,02,01,08,43,28.00
2008,02,01,08,44,28.00
2008,02,01,08,45,30.00
2008,02,01,08,46,30.00
2008,02,01,08,47,30.90
2008,02,01,08,48,32.00
2008,02,01,08,49,32.00
2008,02,01,08,50,32.80
2008,02,01,08,51,33.00
2008,02,01,08,52,33.00
2008,02,01,08,53,33.00
2008,02,01,08,54,33.00
2008,02,01,08,55,33.00
2008,02,01,08,56,33.00
2008,02,01,08,57,35.30
2008,02,01,08,58,37.60
2008,02,01,08,59,39.50
2008,02,01,09,00,41.20
2008,02,01,09,01,42.00
2008,02,01,09,02,42.00
2008,02,01,09,03,42.00
2008,02,01,09,04,42.00
2008,02,01,09,05,43.00
2008,02,01,09,06,44.00
2008,02,01,09,07,45.60
2008,02,01,09,08,47.20
2008,02,01,09,09,52.50
2008,02,01,09,10,59.40
2008,02,01,09,11,59.00
2008,02,01,09,12,54.00
2008,02,01,09,13,51.20
2008,02,01,09,14,51.00
2008,02,01,09,15,51.60
2008,02,01,09,16,53.00
2008,02,01,09,17,53.00
2008,02,01,09,18,53.70
2008,02,01,09,19,57.40
2008,02,01,09,20,60.30
2008,02,01,09,21,62.30
2008,02,01,09,22,63.80
2008,02,01,09,23,66.20
2008,02,01,09,24,76.30
2008,02,01,09,25,84.90
2008,02,01,09,26,86.00
2008,02,01,09,27,87.40
2008,02,01,09,28,93.70
2008,02,01,09,29,97.00
2008,02,01,09,30,101.50
2008,02,01,09,31,97.30
2008,02,01,09,32,92.80
2008,02,01,09,33,83.00
2008,02,01,09,34,81.00
2008,02,01,09,35,82.30
2008,02,01,09,36,80.00
2008,02,01,09,37,76.00
2008,02,01,09,38,69.50
2008,02,01,09,39,67.00
2008,02,01,09,40,63.10
2008,02,01,09,41,58.60
2008,02,01,09,42,54.80
2008,02,01,09,43,53.00
2008,02,01,09,44,53.20
2008,02,01,09,45,56.80
2008,02,01,09,46,62.00
2008,02,01,09,47,80.60
2008,02,01,09,48,89.20
2008,02,01,09,49,67.30
2008,02,01,09,50,60.00
2008,02,01,09,51,61.10
2008,02,01,09,52,62.50
2008,02,01,09,53,60.70
2008,02,01,09,54,60.00
2008,02,01,09,55,66.20
2008,02,01,09,56,101.10
2008,02,01,09,57,175.80
2008,02,01,09,58,170.60
2008,02,01,09,59,151.00
2008,02,01,10,00,151.00
2008,02,01,10,01,108.20
2008,02,01,10,02,97.20
2008,02,01,10,03,90.00
2008,02,01,10,04,90.00
2008,02,01,10,05,121.10
2008,02,01,10,06,211.20
2008,02,01,10,07,146.00
2008,02,01,10,08,147.80
2008,02,01,10,09,146.10
2008,02,01,10,10,121.80
2008,02,01,10,11,122.30
2008,02,01,10,12,77.80
2008,02,01,10,13,60.30
2008,02,01,10,14,62.30
2008,02,01,10,15,62.50
2008,02,01,10,16,62.00
2008,02,01,10,17,60.40
2008,02,01,10,18,66.60
2008,02,01,10,19,66.20
2008,02,01,10,20,61.30
2008,02,01,10,21,61.00
2008,02,01,10,22,62.00
2008,02,01,10,23,62.00
2008,02,01,10,24,62.20
2008,02,01,10,25,65.80
2008,02,01,10,26,68.30
2008,02,01,10,27,67.00
2008,02,01,10,28,117.10
2008,02,01,10,29,201.80
2008,02,01,10,30,217.10
2008,02,01,10,31,360.80
2008,02,01,10,32,356.20
2008,02,01,10,33,344.50
2008,02,01,10,34,300.80
2008,02,01,10,35,330.90
2008,02,01,10,36,257.40
2008,02,01,10,37,215.90
2008,02,01,10,38,287.00
2008,02,01,10,39,282.10
2008,02,01,10,40,242.60
2008,02,01,10,41,174.10
2008,02,01,10,42,133.20
2008,02,01,10,43,133.70
2008,02,01,10,44,118.40
2008,02,01,10,45,118.80
2008,02,01,10,46,117.50
2008,02,01,10,47,116.00
2008,02,01,10,48,113.20
2008,02,01,10,49,95.40
2008,02,01,10,50,91.00
2008,02,01,10,51,96.80
2008,02,01,10,52,104.10
2008,02,01,10,53,106.90
2008,02,01,10,54,104.80
2008,02,01,10,55,141.70
2008,02,01,10,56,193.00
2008,02,01,10,57,193.00
2008,02,01,10,58,200.50
2008,02,01,10,59,199.40
2008,02,01,11,00,194.20
2008,02,01,11,01,165.00
2008,02,01,11,02,173.00
2008,02,01,11,03,197.90
2008,02,01,11,04,212.80
2008,02,01,11,05,195.30
2008,02,01,11,06,159.60
2008,02,01,11,07,141.30
2008,02,01,11,08,130.00
2008,02,01,11,09,122.20
2008,02,01,11,10,112.90
2008,02,01,11,11,80.70
2008,02,01,11,12,62.70
2008,02,01,11,13,54.00
2008,02,01,11,14,55.10
2008,02,01,11,15,59.90
2008,02,01,11,16,66.40
2008,02,01,11,17,69.10
2008,02,01,11,18,70.40
2008,02,01,11,19,72.80
2008,02,01,11,20,75.10
2008,02,01,11,21,76.00
2008,02,01,11,22,76.00
2008,02,01,11,23,75.80
2008,02,01,11,24,74.00
2008,02,01,11,25,74.00
2008,02,01,11,26,74.00
2008,02,01,11,27,78.80
2008,02,01,11,28,83.40
2008,02,01,11,29,88.50
2008,02,01,11,30,95.80
2008,02,01,11,31,136.10
2008,02,01,11,32,152.20
2008,02,01,11,33,110.10
2008,02,01,11,34,100.60
2008,02,01,11,35,96.70
2008,02,01,11,36,96.70
2008,02,01,11,37,108.00
2008,02,01,11,38,116.00
2008,02,01,11,39,116.00
2008,02,01,11,40,116.00
2008,02,01,11,41,153.60
2008,02,01,11,42,148.60
2008,02,01,11,43,157.20
2008,02,01,11,44,190.60
2008,02,01,11,45,212.60
2008,02,01,11,46,202.00
2008,02,01,11,47,192.20
2008,02,01,11,48,156.20
2008,02,01,11,49,154.00
2008,02,01,11,50,160.30
2008,02,01,11,51,163.00
2008,02,01,11,52,163.00
2008,02,01,11,53,163.00
2008,02,01,11,54,163.00
2008,02,01,11,55,332.00
2008,02,01,11,56,501.00
2008,02,01,11,57,265.00
2008,02,01,11,58,195.30
2008,02,01,11,59,176.00
2008,02,01,12,00,171.40
2008,02,01,12,01,163.40
2008,02,01,12,02,158.90
2008,02,01,12,03,158.00
2008,02,01,12,04,159.90
2008,02,01,12,05,160.00
2008,02,01,12,06,158.30
2008,02,01,12,07,156.00
2008,02,01,12,08,155.30
2008,02,01,12,09,155.80
2008,02,01,12,10,152.70
2008,02,01,12,11,148.90
2008,02,01,12,12,142.60
2008,02,01,12,13,138.60
2008,02,01,12,14,133.50
2008,02,01,12,15,128.40
2008,02,01,12,16,124.20
2008,02,01,12,17,121.00
2008,02,01,12,18,122.00
2008,02,01,12,19,125.90
2008,02,01,12,20,134.30
2008,02,01,12,21,147.90
2008,02,01,12,22,167.00
2008,02,01,12,23,199.30
2008,02,01,12,24,290.50
2008,02,01,12,25,365.30
2008,02,01,12,26,390.00
2008,02,01,12,27,440.10
2008,02,01,12,28,446.00
2008,02,01,12,29,476.60
2008,02,01,12,30,529.00
2008,02,01,12,31,441.60
2008,02,01,12,32,335.40
2008,02,01,12,33,334.00
2008,02,01,12,34,675.00
2008,02,01,12,35,675.00
2008,02,01,12,36,675.00
2008,02,01,12,37,414.40
2008,02,01,12,38,260.40
2008,02,01,12,39,247.80
2008,02,01,12,40,245.50
2008,02,01,12,41,242.90
2008,02,01,12,42,239.00
2008,02,01,12,43,233.70
2008,02,01,12,44,229.30
2008,02,01,12,45,229.10
2008,02,01,12,46,230.60
2008,02,01,12,47,233.70
2008,02,01,12,48,238.80
2008,02,01,12,49,243.20
2008,02,01,12,50,244.00
2008,02,01,12,51,244.20
2008,02,01,12,52,246.60
2008,02,01,12,53,248.90
2008,02,01,12,54,248.80
2008,02,01,12,55,246.50
2008,02,01,12,56,254.50
2008,02,01,12,57,265.90
2008,02,01,12,58,273.50
2008,02,01,12,59,315.50
2008,02,01,13,00,352.00
2008,02,01,13,01,352.00
2008,02,01,13,02,267.20
2008,02,01,13,03,296.30
2008,02,01,13,04,252.90
2008,02,01,13,05,234.70
2008,02,01,13,06,227.00
2008,02,01,13,07,217.70
2008,02,01,13,08,239.40
2008,02,01,13,09,265.60
2008,02,01,13,10,278.00
2008,02,01,13,11,257.10
2008,02,01,13,12,229.30
2008,02,01,13,13,229.80
2008,02,01,13,14,233.90
2008,02,01,13,15,267.00
2008,02,01,13,16,403.10
2008,02,01,13,17,617.00
2008,02,01,13,18,617.00
2008,02,01,13,19,639.40
2008,02,01,13,20,641.30
2008,02,01,13,21,595.20
2008,02,01,13,22,571.30
2008,02,01,13,23,599.50
2008,02,01,13,24,590.10
2008,02,01,13,25,585.00
2008,02,01,13,26,581.70
2008,02,01,13,27,547.40
2008,02,01,13,28,540.00
2008,02,01,13,29,534.00
2008,02,01,13,30,524.50
2008,02,01,13,31,513.50
2008,02,01,13,32,504.60
2008,02,01,13,33,493.40
2008,02,01,13,34,481.00
2008,02,01,13,35,470.50
2008,02,01,13,36,459.70
2008,02,01,13,37,452.80
2008,02,01,13,38,452.80
2008,02,01,13,39,444.50
2008,02,01,13,40,439.50
2008,02,01,13,41,436.80
2008,02,01,13,42,436.00
2008,02,01,13,43,428.00
2008,02,01,13,44,427.90
2008,02,01,13,45,425.50
2008,02,01,13,46,437.50
2008,02,01,13,47,455.80
2008,02,01,13,48,435.50
2008,02,01,13,49,427.00
2008,02,01,13,50,427.00
2008,02,01,13,51,427.00
2008,02,01,13,52,430.30
2008,02,01,13,53,430.80
2008,02,01,13,54,429.00
2008,02,01,13,55,439.70
2008,02,01,13,56,404.50
2008,02,01,13,57,361.40
2008,02,01,13,58,316.10
2008,02,01,13,59,279.00
2008,02,01,14,00,206.60
2008,02,01,14,01,173.90
2008,02,01,14,02,209.00
2008,02,01,14,03,218.00
2008,02,01,14,04,145.90
2008,02,01,14,05,88.10
2008,02,01,14,06,77.90
2008,02,01,14,07,79.10
2008,02,01,14,08,82.20
2008,02,01,14,09,88.00
2008,02,01,14,10,94.80
2008,02,01,14,11,102.20
2008,02,01,14,12,108.20
2008,02,01,14,13,114.70
2008,02,01,14,14,120.10
2008,02,01,14,15,130.40
2008,02,01,14,16,182.60
2008,02,01,14,17,253.60
2008,02,01,14,18,262.50
2008,02,01,14,19,116.90
2008,02,01,14,20,112.30
2008,02,01,14,21,110.20
2008,02,01,14,22,113.00
2008,02,01,14,23,116.00
2008,02,01,14,24,116.00
2008,02,01,14,25,152.70
2008,02,01,14,26,281.00
2008,02,01,14,27,281.00
2008,02,01,14,28,281.00
2008,02,01,14,29,236.00
2008,02,01,14,30,183.00
2008,02,01,14,31,192.80
2008,02,01,14,32,240.20
2008,02,01,14,33,234.50
2008,02,01,14,34,203.50
2008,02,01,14,35,242.50
2008,02,01,14,36,293.80
2008,02,01,14,37,254.20
2008,02,01,14,38,204.90
2008,02,01,14,39,202.00
2008,02,01,14,40,209.60
2008,02,01,14,41,214.00
2008,02,01,14,42,274.60
2008,02,01,14,43,231.50
2008,02,01,14,44,225.00
2008,02,01,14,45,215.00
2008,02,01,14,46,203.50
2008,02,01,14,47,205.40
2008,02,01,14,48,283.80
2008,02,01,14,49,242.50
2008,02,01,14,50,234.80
2008,02,01,14,51,263.90
2008,02,01,14,52,316.00
2008,02,01,14,53,369.60
2008,02,01,14,54,376.00
2008,02,01,14,55,376.00
2008,02,01,14,56,370.60
2008,02,01,14,57,352.40
2008,02,01,14,58,333.80
2008,02,01,14,59,329.00
2008,02,01,15,00,297.00
2008,02,01,15,01,294.70
2008,02,01,15,02,290.90
2008,02,01,15,03,293.90
2008,02,01,15,04,292.70
2008,02,01,15,05,271.40
2008,02,01,15,06,240.30
2008,02,01,15,07,255.60
2008,02,01,15,08,250.50
2008,02,01,15,09,235.00
2008,02,01,15,10,214.50
2008,02,01,15,11,204.80
2008,02,01,15,12,203.20
2008,02,01,15,13,192.00
2008,02,01,15,14,193.40
2008,02,01,15,15,207.60
2008,02,01,15,16,217.50
2008,02,01,15,17,235.80
2008,02,01,15,18,245.30
2008,02,01,15,19,252.40
2008,02,01,15,20,257.50
2008,02,01,15,21,257.40
2008,02,01,15,22,251.70
2008,02,01,15,23,244.20
2008,02,01,15,24,241.80
2008,02,01,15,25,244.00
2008,02,01,15,26,245.10
2008,02,01,15,27,247.40
2008,02,01,15,28,248.00
2008,02,01,15,29,244.20
2008,02,01,15,30,244.00
2008,02,01,15,31,244.00
2008,02,01,15,32,244.00
2008,02,01,15,33,244.00
2008,02,01,15,34,241.60
2008,02,01,15,35,238.30
2008,02,01,15,36,210.80
2008,02,01,15,37,142.40
2008,02,01,15,38,85.20
2008,02,01,15,39,80.40
2008,02,01,15,40,101.40
2008,02,01,15,41,122.50
2008,02,01,15,42,71.40
2008,02,01,15,43,68.60
2008,02,01,15,44,64.60
2008,02,01,15,45,63.00
2008,02,01,15,46,62.10
2008,02,01,15,47,63.70
2008,02,01,15,48,67.00
2008,02,01,15,49,69.20
2008,02,01,15,50,66.00
2008,02,01,15,51,57.50
2008,02,01,15,52,55.90
2008,02,01,15,53,54.00
2008,02,01,15,54,54.70
2008,02,01,15,55,56.00
2008,02,01,15,56,59.60
2008,02,01,15,57,62.00
2008,02,01,15,58,53.00
2008,02,01,15,59,53.00
2008,02,01,16,00,55.50
2008,02,01,16,01,69.50
2008,02,01,16,02,98.20
2008,02,01,16,03,94.20
2008,02,01,16,04,54.70
2008,02,01,16,05,41.20
2008,02,01,16,06,39.00
2008,02,01,16,07,39.00
2008,02,01,16,08,39.00
2008,02,01,16,09,39.00
2008,02,01,16,10,39.00
2008,02,01,16,11,38.50
2008,02,01,16,12,36.20
2008,02,01,16,13,35.00
2008,02,01,16,14,38.10
2008,02,01,16,15,39.00
2008,02,01,16,16,44.00
2008,02,01,16,17,44.80
2008,02,01,16,18,48.60
2008,02,01,16,19,52.70
2008,02,01,16,20,56.90
2008,02,01,16,21,59.70
2008,02,01,16,22,81.80
2008,02,01,16,23,106.10
2008,02,01,16,24,108.00
2008,02,01,16,25,82.00
2008,02,01,16,26,73.00
2008,02,01,16,27,76.20
2008,02,01,16,28,87.00
2008,02,01,16,29,112.60
2008,02,01,16,30,123.00
2008,02,01,16,31,124.20
2008,02,01,16,32,130.80
2008,02,01,16,33,136.90
2008,02,01,16,34,141.60
2008,02,01,16,35,117.10
2008,02,01,16,36,105.50
2008,02,01,16,37,99.40
2008,02,01,16,38,98.00
2008,02,01,16,39,98.10
2008,02,01,16,40,100.00
2008,02,01,16,41,100.70
2008,02,01,16,42,102.00
2008,02,01,16,43,100.70
2008,02,01,16,44,97.30
2008,02,01,16,45,89.30
2008,02,01,16,46,76.20
2008,02,01,16,47,65.90
2008,02,01,16,48,57.10
2008,02,01,16,49,49.10
2008,02,01,16,50,42.80
2008,02,01,16,51,38.50
2008,02,01,16,52,32.20
2008,02,01,16,53,28.20
2008,02,01,16,54,25.40
2008,02,01,16,55,21.90
2008,02,01,16,56,19.10
2008,02,01,16,57,17.70
2008,02,01,16,58,15.30
2008,02,01,16,59,14.00
2008,02,01,17,00,12.80
2008,02,01,17,01,12.00
2008,02,01,17,02,12.00
2008,02,01,17,03,11.00
2008,02,01,17,04,10.30
2008,02,01,17,05,9.00
2008,02,01,17,06,9.00
2008,02,01,17,07,7.50
2008,02,01,17,08,7.00
2008,02,01,17,09,6.70
2008,02,01,17,10,5.00
2008,02,01,17,11,5.00
2008,02,01,17,12,5.00
2008,02,01,17,13,0.80
2008,02,01,17,14,0.00
2008,02,01,17,15,0.00
2008,02,01,17,16,0.00
2008,02,01,17,17,0.00
2008,02,01,17,18,0.00
2008,02,01,17,19,0.00
2008,02,01,17,20,0.00
2008,02,01,17,21,0.00
2008,02,01,17,22,0.00
2008,02,01,17,23,0.00
2008,02,01,17,24,0.00
2008,02,01,17,25,0.00
2008,02,01,17,26,0.00
2008,02,01,17,27,0.00